Time,TemperatureF,DewpointF,PressureIn,WindDirection,WindDirectionDegrees,WindSpeedMPH,WindSpeedGustMPH,Humidity,HourlyPrecipIn,Conditions,Clouds,dailyrainin,SoftwareType,DateUTC
2013-02-09 00:14:00,20.1,19.0,30.24,NNE,28,7.0,-999.0,95,-99.99,,,0.00,weatherlink.com 1.10,2013-02-09 05:14:00,
2013-02-09 00:29:00,20.3,19.0,30.25,North,5,8.0,-999.0,95,-99.99,,,0.00,weatherlink.com 1.10,2013-02-09 05:29:00,
2013-02-09 00:44:00,20.2,19.0,30.25,NNE,13,6.0,-999.0,95,-99.99,,,0.00,weatherlink.com 1.10,2013-02-09 05:44:00,
2013-02-09 00:59:00,20.2,19.0,30.25,NNE,12,10.0,-999.0,95,-99.99,,,0.00,weatherlink.com 1.10,2013-02-09 05:59:00,
2013-02-09 01:14:00,20.5,19.0,30.26,North,360,9.0,-999.0,95,-99.99,,,0.00,weatherlink.com 1.10,2013-02-09 06:14:00,
2013-02-09 01:29:00,20.4,19.0,30.27,North,355,12.0,-999.0,95,-99.99,,,0.00,weatherlink.com 1.10,2013-02-09 06:29:00,
2013-02-09 01:44:00,20.4,19.0,30.27,North,5,8.0,-999.0,94,-99.99,,,0.00,weatherlink.com 1.10,2013-02-09 06:44:00,
2013-02-09 01:59:00,20.4,19.0,30.28,North,360,6.0,-999.0,94,-99.99,,,0.00,weatherlink.com 1.10,2013-02-09 06:59:00,
2013-02-09 02:14:00,20.6,19.0,30.28,North,355,7.0,-999.0,94,-99.99,,,0.00,weatherlink.com 1.10,2013-02-09 07:14:00,
2013-02-09 02:29:00,20.4,19.0,30.29,North,349,14.0,-999.0,94,-99.99,,,0.00,weatherlink.com 1.10,2013-02-09 07:29:00,
2013-02-09 02:44:00,20.4,19.0,30.30,North,5,11.0,-999.0,94,-99.99,,,0.00,weatherlink.com 1.10,2013-02-09 07:44:00,
2013-02-09 02:59:00,20.4,19.0,30.30,North,360,10.0,-999.0,93,-99.99,,,0.00,weatherlink.com 1.10,2013-02-09 07:59:00,
2013-02-09 03:14:00,20.3,19.0,30.31,North,355,7.0,-999.0,93,-99.99,,,0.00,weatherlink.com 1.10,2013-02-09 08:14:00,
2013-02-09 03:29:00,20.2,19.0,30.32,North,10,9.0,-999.0,93,-99.99,,,0.00,weatherlink.com 1.10,2013-02-09 08:29:00,
2013-02-09 03:44:00,20.0,18.0,30.33,North,5,9.0,-999.0,93,-99.99,,,0.00,weatherlink.com 1.10,2013-02-09 08:44:00,
2013-02-09 03:59:00,19.9,18.0,30.34,NNW,340,9.0,-999.0,93,-99.99,,,0.00,weatherlink.com 1.10,2013-02-09 08:59:00,
2013-02-09 04:14:00,19.9,18.0,30.34,NNW,347,12.0,-999.0,93,-99.99,,,0.00,weatherlink.com 1.10,2013-02-09 09:14:00,
2013-02-09 04:29:00,19.8,18.0,30.35,North,360,9.0,-999.0,92,-99.99,,,0.00,weatherlink.com 1.10,2013-02-09 09:29:00,
2013-02-09 04:44:00,19.6,18.0,30.36,NNW,344,13.0,-999.0,92,-99.99,,,0.00,weatherlink.com 1.10,2013-02-09 09:44:00,
2013-02-09 04:59:00,19.5,18.0,30.37,NNW,345,9.0,-999.0,92,-99.99,,,0.00,weatherlink.com 1.10,2013-02-09 09:59:00,
2013-02-09 05:14:00,19.2,17.0,30.37,North,355,11.0,-999.0,91,-99.99,,,0.00,weatherlink.com 1.10,2013-02-09 10:14:00,
2013-02-09 05:29:00,19.0,17.0,30.38,North,349,11.0,-999.0,91,-99.99,,,0.00,weatherlink.com 1.10,2013-02-09 10:29:00,
2013-02-09 05:44:00,18.6,16.0,30.38,North,355,12.0,-999.0,91,-99.99,,,0.00,weatherlink.com 1.10,2013-02-09 10:44:00,
2013-02-09 06:00:00,18.5,16.0,30.39,North,355,11.0,-999.0,91,-99.99,,,0.00,weatherlink.com 1.10,2013-02-09 11:00:00,
2013-02-09 06:15:00,18.4,16.0,30.39,NE,47,4.0,-999.0,91,-99.99,,,0.00,weatherlink.com 1.10,2013-02-09 11:15:00,
2013-02-09 06:30:00,18.5,16.0,30.39,North,11,9.0,-999.0,91,-99.99,,,0.00,weatherlink.com 1.10,2013-02-09 11:30:00,
2013-02-09 06:45:00,18.5,16.0,30.40,North,5,8.0,-999.0,91,-99.99,,,0.00,weatherlink.com 1.10,2013-02-09 11:45:00,
2013-02-09 07:00:00,18.9,17.0,30.41,NNE,26,3.0,-999.0,91,-99.99,,,0.00,weatherlink.com 1.10,2013-02-09 12:00:00,
2013-02-09 07:15:00,18.7,17.0,30.42,NNE,12,2.0,-999.0,91,-99.99,,,0.00,weatherlink.com 1.10,2013-02-09 12:15:00,
2013-02-09 07:30:00,18.8,17.0,30.43,North,11,7.0,-999.0,91,-99.99,,,0.00,weatherlink.com 1.10,2013-02-09 12:30:00,
2013-02-09 07:45:00,18.5,16.0,30.44,NNW,347,7.0,-999.0,90,-99.99,,,0.00,weatherlink.com 1.10,2013-02-09 12:45:00,
2013-02-09 08:00:00,18.6,16.0,30.45,North,355,7.0,-999.0,90,-99.99,,,0.00,weatherlink.com 1.10,2013-02-09 13:00:00,
2013-02-09 08:15:00,18.7,16.0,30.45,North,360,3.0,-999.0,90,-99.99,,,0.00,weatherlink.com 1.10,2013-02-09 13:15:00,
2013-02-09 08:30:00,18.9,17.0,30.46,NNE,26,3.0,-999.0,90,-99.99,,,0.00,weatherlink.com 1.10,2013-02-09 13:30:00,
2013-02-09 08:45:00,18.6,16.0,30.46,North,350,3.0,-999.0,89,-99.99,,,0.00,weatherlink.com 1.10,2013-02-09 13:45:00,
2013-02-09 09:00:00,18.4,16.0,30.47,North,360,7.0,-999.0,90,-99.99,,,0.00,weatherlink.com 1.10,2013-02-09 14:00:00,
2013-02-09 09:15:00,18.5,16.0,30.47,NNE,14,4.0,-999.0,90,-99.99,,,0.00,weatherlink.com 1.10,2013-02-09 14:15:00,
2013-02-09 09:30:00,18.0,16.0,30.47,NNW,337,7.0,-999.0,90,-99.99,,,0.00,weatherlink.com 1.10,2013-02-09 14:30:00,
2013-02-09 09:45:00,18.1,16.0,30.47,North,360,7.0,-999.0,90,-99.99,,,0.00,weatherlink.com 1.10,2013-02-09 14:45:00,
2013-02-09 10:00:00,18.0,16.0,30.47,NNW,340,3.0,-999.0,90,-99.99,,,0.00,weatherlink.com 1.10,2013-02-09 15:00:00,
2013-02-09 10:15:00,18.2,16.0,30.47,NW,319,4.0,-999.0,90,-99.99,,,0.00,weatherlink.com 1.10,2013-02-09 15:15:00,
2013-02-09 10:30:00,18.2,16.0,30.47,NW,316,2.0,-999.0,90,-99.99,,,0.00,weatherlink.com 1.10,2013-02-09 15:30:00,
2013-02-09 10:45:00,18.2,16.0,30.48,NNW,336,5.0,-999.0,90,-99.99,,,0.00,weatherlink.com 1.10,2013-02-09 15:45:00,
2013-02-09 11:00:00,18.1,16.0,30.48,NNW,343,3.0,-999.0,90,-99.99,,,0.00,weatherlink.com 1.10,2013-02-09 16:00:00,
2013-02-09 11:15:00,18.3,16.0,30.48,NNW,335,6.0,-999.0,90,-99.99,,,0.00,weatherlink.com 1.10,2013-02-09 16:15:00,
2013-02-09 11:30:00,18.4,16.0,30.48,WNW,302,5.0,-999.0,90,-99.99,,,0.00,weatherlink.com 1.10,2013-02-09 16:30:00,
2013-02-09 11:45:00,18.5,16.0,30.49,West,280,4.0,-999.0,90,-99.99,,,0.00,weatherlink.com 1.10,2013-02-09 16:45:00,
2013-02-09 12:00:00,18.8,16.0,30.48,NNW,340,2.0,-999.0,90,-99.99,,,0.00,weatherlink.com 1.10,2013-02-09 17:00:00,
2013-02-09 12:15:00,19.0,17.0,30.47,NNW,331,2.0,-999.0,90,-99.99,,,0.00,weatherlink.com 1.10,2013-02-09 17:15:00,
2013-02-09 12:30:00,19.2,17.0,30.47,WNW,286,3.0,-999.0,89,-99.99,,,0.00,weatherlink.com 1.10,2013-02-09 17:30:00,
2013-02-09 12:45:00,20.6,17.0,30.47,West,280,6.0,-999.0,87,-99.99,,,0.00,weatherlink.com 1.10,2013-02-09 17:45:00,
2013-02-09 13:00:00,20.2,17.0,30.47,WNW,294,4.0,-999.0,87,-99.99,,,0.00,weatherlink.com 1.10,2013-02-09 18:00:00,
2013-02-09 13:15:00,20.7,17.0,30.46,West,276,6.0,-999.0,86,-99.99,,,0.00,weatherlink.com 1.10,2013-02-09 18:15:00,
2013-02-09 13:30:00,21.1,18.0,30.46,NNW,338,3.0,-999.0,87,-99.99,,,0.00,weatherlink.com 1.10,2013-02-09 18:30:00,
2013-02-09 13:45:00,21.7,18.0,30.47,West,279,3.0,-999.0,86,-99.99,,,0.00,weatherlink.com 1.10,2013-02-09 18:45:00,
2013-02-09 14:00:00,21.9,18.0,30.46,WNW,292,3.0,-999.0,85,-99.99,,,0.00,weatherlink.com 1.10,2013-02-09 19:00:00,
2013-02-09 14:15:00,22.1,18.0,30.46,WNW,301,2.0,-999.0,85,-99.99,,,0.00,weatherlink.com 1.10,2013-02-09 19:15:00,
2013-02-09 14:30:00,22.3,19.0,30.46,WNW,301,3.0,-999.0,86,-99.99,,,0.00,weatherlink.com 1.10,2013-02-09 19:30:00,
2013-02-09 14:45:00,22.9,19.0,30.46,West,281,2.0,-999.0,86,-99.99,,,0.00,weatherlink.com 1.10,2013-02-09 19:45:00,
2013-02-09 15:00:00,23.0,19.0,30.46,West,279,4.0,-999.0,86,-99.99,,,0.00,weatherlink.com 1.10,2013-02-09 20:00:00,
2013-02-09 15:15:00,22.6,19.0,30.47,West,274,5.0,-999.0,85,-99.99,,,0.00,weatherlink.com 1.10,2013-02-09 20:15:00,
2013-02-09 15:30:00,23.1,20.0,30.47,WNW,287,5.0,-999.0,86,-99.99,,,0.00,weatherlink.com 1.10,2013-02-09 20:30:00,
2013-02-09 15:45:00,23.2,19.0,30.47,West,278,6.0,-999.0,85,-99.99,,,0.00,weatherlink.com 1.10,2013-02-09 20:45:00,
2013-02-09 16:00:00,22.8,19.0,30.47,West,264,5.0,-999.0,84,-99.99,,,0.00,weatherlink.com 1.10,2013-02-09 21:00:00,
2013-02-09 16:15:00,22.7,19.0,30.46,WSW,255,7.0,-999.0,85,-99.99,,,0.00,weatherlink.com 1.10,2013-02-09 21:15:00,
2013-02-09 16:31:00,23.1,19.0,30.46,WSW,252,2.0,-999.0,83,-99.99,,,0.00,weatherlink.com 1.10,2013-02-09 21:31:00,
2013-02-09 16:46:00,23.3,19.0,30.46,WSW,248,3.0,-999.0,83,-99.99,,,0.00,weatherlink.com 1.10,2013-02-09 21:46:00,
2013-02-09 17:01:00,22.5,18.0,30.46,WSW,251,3.0,-999.0,82,-99.99,,,0.00,weatherlink.com 1.10,2013-02-09 22:01:00,
2013-02-09 17:16:00,22.7,18.0,30.46,WSW,252,2.0,-999.0,82,-99.99,,,0.00,weatherlink.com 1.10,2013-02-09 22:16:00,
2013-02-09 17:31:00,22.6,18.0,30.46,WSW,252,1.0,-999.0,82,-99.99,,,0.00,weatherlink.com 1.10,2013-02-09 22:31:00,
2013-02-09 17:46:00,21.8,17.0,30.46,WSW,252,0.0,-999.0,82,-99.99,,,0.00,weatherlink.com 1.10,2013-02-09 22:46:00,
2013-02-09 18:01:00,20.5,16.0,30.46,WSW,252,0.0,-999.0,83,-99.99,,,0.00,weatherlink.com 1.10,2013-02-09 23:01:00,
2013-02-09 18:16:00,19.1,15.0,30.47,WSW,252,0.0,-999.0,84,-99.99,,,0.00,weatherlink.com 1.10,2013-02-09 23:16:00,
2013-02-09 18:31:00,18.8,15.0,30.48,WSW,251,3.0,-999.0,85,-99.99,,,0.00,weatherlink.com 1.10,2013-02-09 23:31:00,
2013-02-09 18:46:00,18.2,14.0,30.47,South,182,4.0,-999.0,85,-99.99,,,0.00,weatherlink.com 1.10,2013-02-09 23:46:00,
2013-02-09 19:01:00,17.9,14.0,30.47,South,179,2.0,-999.0,86,-99.99,,,0.00,weatherlink.com 1.10,2013-02-10 00:01:00,
2013-02-09 19:16:00,17.0,14.0,30.47,SSW,192,2.0,-999.0,87,-99.99,,,0.00,weatherlink.com 1.10,2013-02-10 00:16:00,
2013-02-09 19:31:00,16.5,13.0,30.47,South,177,2.0,-999.0,87,-99.99,,,0.00,weatherlink.com 1.10,2013-02-10 00:31:00,
2013-02-09 19:46:00,15.9,13.0,30.48,SSE,148,4.0,-999.0,88,-99.99,,,0.00,weatherlink.com 1.10,2013-02-10 00:46:00,
2013-02-09 20:01:00,15.5,13.0,30.48,South,171,6.0,-999.0,88,-99.99,,,0.00,weatherlink.com 1.10,2013-02-10 01:01:00,
2013-02-09 20:16:00,15.4,13.0,30.48,South,178,4.0,-999.0,89,-99.99,,,0.00,weatherlink.com 1.10,2013-02-10 01:16:00,
2013-02-09 20:31:00,15.0,13.0,30.48,South,181,2.0,-999.0,90,-99.99,,,0.00,weatherlink.com 1.10,2013-02-10 01:31:00,
2013-02-09 20:46:00,15.0,13.0,30.49,South,179,4.0,-999.0,90,-99.99,,,0.00,weatherlink.com 1.10,2013-02-10 01:46:00,
2013-02-09 21:01:00,14.9,13.0,30.48,South,175,2.0,-999.0,91,-99.99,,,0.00,weatherlink.com 1.10,2013-02-10 02:01:00,
2013-02-09 21:16:00,14.7,13.0,30.49,South,175,2.0,-999.0,91,-99.99,,,0.00,weatherlink.com 1.10,2013-02-10 02:16:00,
2013-02-09 21:31:00,13.7,12.0,30.49,South,177,4.0,-999.0,91,-99.99,,,0.00,weatherlink.com 1.10,2013-02-10 02:31:00,
2013-02-09 21:46:00,14.7,13.0,30.49,SSE,163,4.0,-999.0,92,-99.99,,,0.00,weatherlink.com 1.10,2013-02-10 02:46:00,
2013-02-09 22:01:00,14.5,13.0,30.49,SSE,158,4.0,-999.0,92,-99.99,,,0.00,weatherlink.com 1.10,2013-02-10 03:01:00,
2013-02-09 22:16:00,14.0,12.0,30.49,South,174,5.0,-999.0,92,-99.99,,,0.00,weatherlink.com 1.10,2013-02-10 03:16:00,
2013-02-09 22:31:00,15.0,13.0,30.48,South,179,5.0,-999.0,92,-99.99,,,0.00,weatherlink.com 1.10,2013-02-10 03:31:00,
2013-02-09 22:46:00,14.4,13.0,30.48,South,169,5.0,-999.0,92,-99.99,,,0.00,weatherlink.com 1.10,2013-02-10 03:46:00,
2013-02-09 23:01:00,14.0,12.0,30.48,South,179,5.0,-999.0,92,-99.99,,,0.00,weatherlink.com 1.10,2013-02-10 04:01:00,
2013-02-09 23:16:00,14.6,13.0,30.47,South,174,4.0,-999.0,92,-99.99,,,0.00,weatherlink.com 1.10,2013-02-10 04:16:00,
2013-02-09 23:31:00,13.5,12.0,30.47,South,172,5.0,-999.0,92,-99.99,,,0.00,weatherlink.com 1.10,2013-02-10 04:31:00,
2013-02-09 23:46:00,13.7,12.0,30.47,SSE,165,4.0,-999.0,92,-99.99,,,0.00,weatherlink.com 1.10,2013-02-10 04:46:00,